Stations météo

réclame
Mon MeteoGroup
Katterjakk A, Suède (2019): Température de l'air & dewpoint: 18.05.2019 05:00:00 - 24.05.2019 05:00:00 (CEST)Katterjakk A, Suède (2019): Vitesse du vent & gusts: 18.05.2019 05:00:00 - 24.05.2019 05:00:00 (CEST)Katterjakk A, Suède (2019): Direction du vent: 18.05.2019 05:00:00 - 24.05.2019 05:00:00 (CEST)Katterjakk A, Suède (2019): reduced air pressure: 18.05.2019 05:00:00 - 24.05.2019 05:00:00 (CEST)Katterjakk A, Suède (2019): visibility: 18.05.2019 05:00:00 - 24.05.2019 05:00:00 (CEST)Katterjakk A, Suède (2019): Quantités de précipitations: 18.05.2019 05:00:00 - 24.05.2019 05:00:00 (CEST)
Date & Time tt [°C] td [°C] ff [km/h] ff [knt] fx [km/h] fx [knt] dd ppp [hPa] vv [km] rr [mm]
24.05.2019 05:00:00 1,2 -3,9 4 2 10 6 NNW 1013,9 50 0,0
24.05.2019 04:00:00 -0,7 -4,6 5 3 9 5 N 1014,4 50 0,0
24.05.2019 03:00:00 -0,8 -4,2 4 2 11 6 NNW 1014,7 50 0,0
24.05.2019 02:00:00 -1,2 -4,5 4 2 9 5 W 1015,0 50 0,0
24.05.2019 01:00:00 -0,7 -4,6 5 3 10 5 SW 1015,2 50 0,0
24.05.2019 00:00:00 0,2 -4,3 2 1 10 5 WSW 1015,2 50 0,0
23.05.2019 23:00:00 0,4 -4,1 3 1 14 8 WNW 1015,4 50 0,0
23.05.2019 22:00:00 2,6 -3,5 18 10 36 20 E 1015,0 50 0,0
23.05.2019 21:00:00 3,0 -3,6 28 15 40 22 E 1014,9 50 0,0
23.05.2019 20:00:00 3,3 -3,5 27 15 38 21 E 1015,0 50 0,0
23.05.2019 19:00:00 3,5 -3,8 26 14 42 23 E 1015,1 45 0,0
23.05.2019 18:00:00 3,6 -3,4 29 16 42 23 E 1015,3 41 0,0
23.05.2019 17:00:00 3,5 -3,5 34 18 45 24 E 1015,7 48 0,0
23.05.2019 16:00:00 3,3 -3,5 33 18 46 25 E 1016,1 50 0,0
23.05.2019 15:00:00 3,1 -3,9 32 18 48 26 E 1016,4 43 0,0
23.05.2019 14:00:00 3,0 -3,8 34 18 47 26 E 1016,7 50 0,0
23.05.2019 13:00:00 2,8 -4,0 33 18 50 27 E 1016,9 37 0,0
23.05.2019 12:00:00 2,3 -4,4 37 20 47 25 E 1017,2 49 0,0
23.05.2019 11:00:00 2,1 -4,6 32 17 44 24 E 1017,4 43 0,0
23.05.2019 10:00:00 1,8 -4,5 32 17 40 22 E 1017,8 50 0,0
23.05.2019 09:00:00 1,9 -4,0 23 13 40 22 E 1018,0 43 0,0
23.05.2019 08:00:00 1,6 -4,3 22 12 36 19 E 1018,3 42 0,0
23.05.2019 07:00:00 1,7 -4,6 16 9 26 14 E 1018,6 50 0,0
23.05.2019 06:00:00 1,8 -4,9 4 2 9 5 E 1018,9 46 0,0
23.05.2019 05:00:00 0,9 -4,9 4 2 12 7 NW 1019,3 50 0,0
23.05.2019 04:00:00 0,1 -4,9 5 3 11 6 NNW 1019,8 50 0,0
23.05.2019 03:00:00 -0,3 -5,1 5 3 18 10 W 1020,1 50 0,0
23.05.2019 02:00:00 0,5 -4,9 14 8 33 18 E 1020,3 50 0,0
23.05.2019 01:00:00 0,8 -4,6 24 13 39 21 E 1020,3 50 0,0
23.05.2019 00:00:00 1,4 -4,5 21 12 41 22 E 1020,2 50 0,0
22.05.2019 23:00:00 1,7 -4,2 28 15 50 27 ENE 1020,2 50 0,0
22.05.2019 22:00:00 2,2 -3,9 32 17 50 27 E 1019,9 50 0,0
22.05.2019 21:00:00 2,8 -3,5 34 18 53 29 ENE 1019,6 50 0,0
22.05.2019 20:00:00 3,9 -3,2 32 18 47 25 ENE 1019,0 50 0,0
22.05.2019 19:00:00 4,9 -2,7 31 17 50 27 ENE 1018,8 50 0,0
22.05.2019 18:00:00 5,8 -2,5 28 15 43 23 E 1018,7 50 0,0
22.05.2019 17:00:00 6,1 -2,3 28 15 42 23 E 1018,8 47 0,0
22.05.2019 16:00:00 5,7 -1,9 27 15 40 22 ENE 1019,2 43 0,0
22.05.2019 15:00:00 5,5 -1,4 24 13 41 22 E 1019,3 46 0,0
22.05.2019 14:00:00 5,2 -0,8 25 13 39 21 E 1019,2 49 0,0
22.05.2019 13:00:00 4,9 -0,1 27 14 41 22 ENE 1019,1 49 0,0
22.05.2019 12:00:00 4,6 0,4 26 14 38 20 ENE 1019,4 45 0,0
22.05.2019 11:00:00 4,5 1,0 25 13 35 19 E 1019,2 47 0,0
22.05.2019 10:00:00 4,1 1,3 21 12 31 17 E 1019,2 50 0,0
22.05.2019 09:00:00 3,5 1,9 7 4 10 6 E 1019,2 41 0,0
22.05.2019 08:00:00 3,3 1,8 5 3 9 5 NW 1019,1 29 0,0
22.05.2019 07:00:00 2,5 1,9 0 0 5 3 N 1019,2 3,1 0,0
22.05.2019 06:00:00 2,5 1,9 2 1 6 4 W 1019,3 7 0,0
22.05.2019 05:00:00 2,4 1,7 5 3 7 4 NNW 1019,3 10 0,0
22.05.2019 04:00:00 2,8 2,1 5 3 8 5 NW 1019,5 12 0,0
22.05.2019 03:00:00 2,4 2,0 4 2 6 3 NNW 1019,8 12 0,0
22.05.2019 02:00:00 1,3 0,3 2 1 9 5 WSW 1020,0 11 0,0
22.05.2019 01:00:00 1,9 0,7 2 1 8 4 WSW 1020,1 13 0,0
22.05.2019 00:00:00 2,1 1,1 3 1 5 3 W 1020,0 21 0,0
21.05.2019 23:00:00 2,9 1,3 2 1 7 4 NW 1019,8 26 0,0
21.05.2019 22:00:00 5,3 2,5 4 2 6 4 NNW 1019,1 41 0,0
21.05.2019 21:00:00 4,9 2,1 2 1 10 5 W 1019,1 41 0,0
21.05.2019 20:00:00 5,3 2,3 8 4 13 7 S 1019,0 50 0,0
21.05.2019 19:00:00 6,9 2,8 5 3 - - S 1018,6 41 0,0
21.05.2019 18:00:00 7,0 2,9 8 4 10 6 S 1018,7 44 0,0
21.05.2019 17:00:00 7,7 3,5 7 4 15 8 S 1018,5 38 0,0
21.05.2019 16:00:00 7,6 3,1 10 5 15 8 S 1018,8 40 0,0
21.05.2019 15:00:00 7,1 2,6 11 6 15 8 S 1019,0 44 0,0
21.05.2019 14:00:00 6,9 2,6 12 6 16 9 S 1019,1 50 0,0
21.05.2019 13:00:00 7,0 2,5 9 5 16 9 S 1019,0 36 0,0
21.05.2019 12:00:00 6,9 2,0 9 5 14 8 S 1018,9 41 0,0
21.05.2019 11:00:00 7,1 2,2 11 6 16 9 S 1018,7 46 0,0
21.05.2019 10:00:00 6,2 1,5 7 4 10 5 S 1018,7 47 0,0
21.05.2019 09:00:00 6,0 1,3 10 5 15 8 S 1018,6 44 0,0
21.05.2019 08:00:00 6,8 1,5 3 1 8 4 NNE 1018,4 42 0,0
21.05.2019 07:00:00 5,8 1,3 4 2 6 4 NNW 1018,5 50 0,0
21.05.2019 06:00:00 6,2 1,5 2 1 10 5 ENE 1018,2 50 0,0
21.05.2019 05:00:00 5,6 1,3 6 3 10 5 SW 1018,2 50 0,0
21.05.2019 04:00:00 5,2 1,1 6 4 16 8 S 1018,1 50 0,0
21.05.2019 03:00:00 6,5 1,6 8 5 18 10 SW 1017,8 50 0,0
21.05.2019 02:00:00 6,3 1,6 6 3 19 10 WSW 1017,8 50 0,0
21.05.2019 01:00:00 6,8 1,7 7 4 18 10 SW 1017,6 50 0,0
21.05.2019 00:00:00 8,3 2,3 4 2 16 9 SW 1017,0 50 0,0
20.05.2019 23:00:00 8,2 2,2 10 6 26 14 SW 1017,0 50 0,0
20.05.2019 22:00:00 8,0 2,0 21 12 28 15 SSW 1016,9 50 0,0
20.05.2019 21:00:00 8,2 2,2 14 8 26 14 SSW 1016,7 50 0,0
20.05.2019 20:00:00 8,9 2,2 12 7 - - WSW 1016,4 50 0,0
20.05.2019 19:00:00 9,6 2,4 15 8 25 13 SW 1016,0 50 0,0
20.05.2019 18:00:00 9,9 2,3 16 9 27 14 SSW 1015,9 50 0,0
20.05.2019 17:00:00 9,8 2,4 21 11 28 15 SSW 1016,1 46 0,0
20.05.2019 16:00:00 8,2 1,8 21 11 27 15 SSW 1016,4 49 0,0
20.05.2019 15:00:00 10,1 2,2 6 3 26 14 SW 1016,0 47 0,0
20.05.2019 14:00:00 8,6 2,0 9 5 16 9 SSW 1016,3 42 0,0
20.05.2019 13:00:00 7,3 1,6 11 6 17 9 S 1016,5 47 0,0
20.05.2019 12:00:00 7,3 1,8 9 5 13 7 S 1016,6 39 0,0
20.05.2019 11:00:00 6,6 2,3 5 3 9 5 SSW 1016,5 45 0,0
20.05.2019 10:00:00 6,3 1,4 6 4 12 6 S 1016,4 43 0,0
20.05.2019 09:00:00 6,1 1,6 7 4 12 7 S 1016,5 47 0,0
20.05.2019 08:00:00 6,2 1,9 4 2 - - S 1016,5 47 0,0
20.05.2019 07:00:00 4,7 1,5 3 2 7 4 SSW 1016,7 50 0,0
20.05.2019 06:00:00 5,5 2,0 3 1 7 4 WSW 1016,5 50 0,0
20.05.2019 05:00:00 4,9 1,4 0 0 10 5 N 1016,7 50 0,0
20.05.2019 04:00:00 5,0 1,5 3 1 9 5 NE 1016,6 50 0,0
20.05.2019 03:00:00 5,1 1,4 5 3 9 5 SW 1016,8 50 0,0
20.05.2019 02:00:00 5,6 1,7 2 1 15 8 W 1016,8 50 0,0
20.05.2019 01:00:00 6,6 1,3 9 5 14 8 WSW 1016,7 50 0,0
20.05.2019 00:00:00 5,2 0,8 7 4 12 6 WSW 1017,4 50 0,0
19.05.2019 23:00:00 8,2 1,1 6 3 16 9 SW 1016,7 50 0,0
19.05.2019 22:00:00 7,4 0,8 10 5 16 9 SW 1016,9 50 0,0
19.05.2019 21:00:00 8,6 1,0 9 5 19 10 SW 1016,7 50 0,0
19.05.2019 20:00:00 8,8 1,2 14 8 21 11 SSW 1016,8 50 0,0
19.05.2019 19:00:00 9,0 1,2 9 5 15 8 SSW 1017,1 50 0,0
19.05.2019 18:00:00 9,0 0,9 10 5 21 11 SW 1017,6 50 0,0
19.05.2019 17:00:00 9,0 1,4 14 7 19 11 S 1017,8 43 0,0
19.05.2019 16:00:00 8,5 0,7 16 9 23 12 SSW 1018,1 50 0,0
19.05.2019 15:00:00 8,5 0,9 12 7 25 13 SSW 1018,4 49 0,0
19.05.2019 14:00:00 8,0 0,7 14 8 19 11 S 1018,9 44 0,0
19.05.2019 13:00:00 8,1 -0,2 9 5 19 10 S 1018,9 43 0,0
19.05.2019 12:00:00 5,9 -0,8 13 7 17 9 S 1019,5 37 0,0
19.05.2019 11:00:00 7,2 -0,5 4 2 13 7 S 1019,3 44 0,0
19.05.2019 10:00:00 6,8 -1,1 7 4 13 7 S 1019,4 50 0,0
19.05.2019 09:00:00 5,8 -1,6 7 4 11 6 S 1019,7 47 0,0
19.05.2019 08:00:00 6,0 -1,6 5 3 9 5 S 1019,8 50 0,0
19.05.2019 07:00:00 5,5 -2,8 0 0 4 2 N 1020,0 42 0,0
19.05.2019 06:00:00 4,8 -2,1 3 2 5 3 NNE 1020,2 50 0,0
19.05.2019 05:00:00 4,1 -2,7 4 2 14 7 S 1020,5 50 0,0
19.05.2019 04:00:00 4,6 -3,2 7 4 13 7 SSW 1020,5 50 0,0
19.05.2019 03:00:00 4,1 -3,4 5 3 14 8 WSW 1020,7 50 0,0
19.05.2019 02:00:00 3,8 -3,5 6 3 16 9 SSW 1020,9 50 0,0
19.05.2019 01:00:00 4,7 -3,3 6 3 13 7 SW 1020,8 50 0,0
19.05.2019 00:00:00 5,6 -4,0 6 4 13 7 SSW 1020,6 50 0,0
18.05.2019 23:00:00 5,7 -3,1 8 4 17 9 WSW 1020,9 50 0,0
18.05.2019 22:00:00 7,0 -3,3 7 4 21 11 SW 1020,6 50 0,0
18.05.2019 21:00:00 8,1 -2,8 10 6 16 9 SW 1020,3 50 0,0
18.05.2019 20:00:00 9,6 -4,4 12 6 19 11 SW 1020,1 50 0,0
18.05.2019 19:00:00 8,8 -2,8 9 5 17 9 SW 1020,5 45 0,0
18.05.2019 18:00:00 9,4 -2,9 9 5 14 8 WSW 1020,7 44 0,0
18.05.2019 17:00:00 9,9 -2,7 6 3 21 12 WSW 1020,8 45 0,0
18.05.2019 16:00:00 10,2 -4,2 7 4 15 8 SSW 1021,0 50 0,0
18.05.2019 15:00:00 9,8 -3,2 5 3 13 7 SSW 1021,4 48 0,0
18.05.2019 14:00:00 7,7 -3,8 8 5 16 9 SSW 1022,0 40 0,0
18.05.2019 13:00:00 8,5 -2,5 5 3 17 9 S 1022,0 40 0,0
18.05.2019 12:00:00 7,2 -2,0 6 3 11 6 S 1022,6 37 0,0
18.05.2019 11:00:00 8,5 -2,5 2 1 4 2 SSW 1022,3 49 0,0
18.05.2019 10:00:00 7,5 -1,7 3 2 9 5 S 1022,6 49 0,0
18.05.2019 09:00:00 5,3 -2,3 7 4 10 5 S 1023,2 42 0,0
18.05.2019 08:00:00 5,6 -2,0 2 1 8 4 S 1023,6 46 0,0
18.05.2019 07:00:00 4,6 -2,3 0 0 7 4 N 1024,1 40 0,0
18.05.2019 06:00:00 3,4 -2,1 5 3 8 4 S 1024,8 50 0,0
18.05.2019 05:00:00 2,9 -3,0 4 2 16 8 SSE 1025,3 50 0,0

tt = Température de l'air
td = dewpoint
ff = Vitesse du vent
fx = gusts
dd = Direction du vent
ppp = reduced air pressure
vv = visibility
rr = Quantités de précipitations

stations d'obs. à proximité